Погода в Степанцах

Украина / Черкасская область     49°42′29″N   31°17′59″E
темп.,
°C
ветер,
м/с
пор.,
м/с
влажн.,
%
обл.,
%
осадки,
мм/ч
давл.,
гПа
погр.,
м
23 октября, сб
сб2300:00+11зюз355388 0.0 101479
03:00+10зюз4126662 0.0 1014271
06:00+8зюз411804 0.0 1014254
09:00+9зюз5127015 0.0 1015499
12:00+12з8114339 0.0 10161588
15:00+13зсз710385 0.0 10172161
18:00+9зсз48455 0.0 1018168
21:00+6зсз39535 0.0 1020204
24 октября, вс
вс2400:00+5з3865100 0.0 1022154
03:00+4з497173 0.0 1022241
06:00+4з4107690 0.0 1023312
09:00+6зсз51074100 0.1 1024505
12:00+8сз686168 0.1 10251230
15:00+8ссз786097 0.2 10261272
18:00+6ссз6961100 0.0 10281359
21:00+6ссз5963100 0.0 1029951
25 октября, пн
пн2500:00+2сз377213 0.0 1031154
03:00+1сз35736 0.0 103296
06:000ссз33795 0.0 103352
09:00+2ссз24740 0.0 1034177
12:00+6с22512 0.0 1034759
15:00+8ссв21433 0.0 1033884
18:00+4в11555 0.0 103310
21:00+3юв226123 0.0 103318
26 октября, вт
вт2600:00+2ю33655 0.0 103330
03:00+1ю33695 0.0 103341
06:00+1ю34725 0.0 103253
09:00+2ю37645 0.0 1032179
12:00+9ю57405 0.0 1030678
15:00+11ююз57350 0.0 1028958
18:00+6ю35460 0.0 102866
21:00+4ю38500 0.0 1027127
27 октября, ср
ср2700:00+3ю37510 0.0 1027121
03:00+2ю395559 0.0 1027141
06:00+2ююз3964100 0.0 1026159
09:00+3ююз3966100 0.0 1026249
12:00+8юз575964 0.0 1025555
15:00+11зюз575639 0.0 10231096
18:00+8з337037 0.0 102320
21:00+7зсз3562100 0.0 102490